Zurück zum Katalog

TITAN 3C TRANSTAGE DEB

AktivGEO
NORAD 59980·DEBRIS·🇺🇸 United States

Gestartet Sep 26, 1968 von Cape Canaveral Space Force Station

Loading…

TLE

AktuellSource: Space-Track

Epoche: Sep 14, 2026, 13:14 UTC

1 59980U 68081AN  26257.55194966 -.00000135  00000-0  00000+0 0  9990
2 59980   2.0287  58.3024 0026688 286.9991  73.2797  1.02254763 44438

Verfolge TITAN 3C TRANSTAGE DEB in Echtzeit mit AllMySat

Download on the App Store